Palmdale, CA

11:34 PM PDT on August 29, 2016 (GMT -0700)
Palmdale Af Plant 42

Weather History for KPMD - May, 2011

Change the Weather History Date:

Sunday, May 1, 2011

  Actual Average Record
Temperature  
Mean Temperature 55 °F 63 °F  
Max Temperature 74 °F 78 °F 95 °F (1996)
Min Temperature 36 °F 48 °F 28 °F (1988)
Degree Days  
Heating Degree Days 10 4  
Month to date heating degree days 10 4  
Since 1 July heating degree days 2881 2854  
Cooling Degree Days 0 2  
Month to date cooling degree days 0 2  
Year to date cooling degree days 6 25  
Growing Degree Days 5 (Base 50)    
Moisture  
Dew Point 16 °F    
Average Humidity 36    
Maximum Humidity 64    
Minimum Humidity 7    
Precipitation  
Precipitation 0.00 in 0.01 in 0.25 in (1941)
Month to date precipitation 0.00 0.01  
Year to date precipitation 2.34 4.99  
Since 1 July precipitation 7.72  
Snow  
Snow 0.00 in - 0.00 in (1973)
Month to date snowfall 0.0  
Since 1 July snowfall 0.0  
Snow Depth 0.00 in    
Sea Level Pressure  
Sea Level Pressure 30.16 in    
Wind  
Wind Speed 8 mph (ENE)    
Max Wind Speed 24 mph    
Max Gust Speed 47 mph    
Visibility 10 miles    
Events      
T = Trace of Precipitation, MM = Missing Value Source: NWS Daily Summary

Daily Weather History Graph

Daily Weather History Graph

Search for Another Location

Airport or City:

Trip Planner

Search our weather history database for the weather conditions in past years. The results will help you decide how hot, cold, wet, or windy it might be!

Date:

Astronomy

May. 01, 2011 Rise Set
Actual Time 6:02 AM PDT 7:37 PM PDT
Civil Twilight 5:35 AM PDT 8:04 PM PDT
Nautical Twilight 5:03 AM PDT 8:36 PM PDT
Astronomical Twilight 4:29 AM PDT 9:10 PM PDT
Moon 4:51 AM PDT (5/1) 6:31 PM PDT (5/1)
Length of Visible Light 14h 28m
Length of Day
13h 34m
Waning Crescent, 2% of the Moon is Illuminated
May 1
Waning Crescent
May 2
New
May 10
First Quarter
May 17
Full
May 24
Last Quarter

Hourly Weather History & Observations

Time (PDT) Temp. Windchill Dew Point Humidity Pressure Visibility Wind Dir Wind Speed Gust Speed Precip Events Conditions
12:53 AM 42.8 °F 39.3 °F 24.8 °F 49% 30.13 in 10.0 mi WSW 5.8 mph - N/A   Clear
1:53 AM 43.0 °F 41.3 °F 25.0 °F 49% 30.11 in 10.0 mi SSE 3.5 mph - N/A   Clear
2:53 AM 39.9 °F 36.7 °F 24.1 °F 53% 30.11 in 10.0 mi South 4.6 mph - N/A   Clear
3:53 AM 39.0 °F 33.4 °F 25.0 °F 57% 30.12 in 10.0 mi SSW 8.1 mph - N/A   Clear
4:53 AM 37.0 °F 33.3 °F 24.1 °F 59% 30.13 in 10.0 mi SW 4.6 mph - N/A   Clear
5:53 AM 37.9 °F 33.5 °F 26.1 °F 62% 30.15 in 10.0 mi SSW 5.8 mph - N/A   Clear
6:53 AM 41.0 °F 39.0 °F 26.1 °F 55% 30.18 in 10.0 mi SSW 3.5 mph - N/A   Clear
7:53 AM 53.1 °F - 21.9 °F 30% 30.19 in 10.0 mi East 4.6 mph - N/A   Clear
8:53 AM 59.0 °F - 16.0 °F 19% 30.19 in 10.0 mi NE 8.1 mph - N/A   Clear
9:53 AM 63.0 °F - 14.0 °F 15% 30.18 in 10.0 mi NE 23.0 mph 29.9 mph N/A   Clear
10:53 AM 66.0 °F - 10.9 °F 12% 30.19 in 10.0 mi NE 16.1 mph 25.3 mph N/A   Clear
11:53 AM 66.9 °F - 10.0 °F 11% 30.19 in 10.0 mi NE 10.4 mph 25.3 mph N/A   Clear
12:53 PM 69.1 °F - 8.1 °F 9% 30.18 in 10.0 mi NE 19.6 mph 25.3 mph N/A   Clear
1:53 PM 70.0 °F - 8.1 °F 9% 30.17 in 10.0 mi ENE 10.4 mph 24.2 mph N/A   Clear
2:53 PM 72.0 °F - 5.0 °F 7% 30.16 in 10.0 mi NE 15.0 mph 23.0 mph N/A   Clear
3:53 PM 73.0 °F - 5.0 °F 7% 30.14 in 10.0 mi NE 13.8 mph 23.0 mph N/A   Clear
4:53 PM 72.0 °F - 6.1 °F 8% 30.13 in 10.0 mi ENE 11.5 mph - N/A   Clear
5:53 PM 72.0 °F - 7.0 °F 8% 30.13 in 10.0 mi NE 11.5 mph - N/A   Clear
6:53 PM 70.0 °F - 7.0 °F 9% 30.13 in 10.0 mi ENE 5.8 mph - N/A   Clear
7:53 PM 63.0 °F - 18.0 °F 18% 30.13 in 10.0 mi ENE 4.6 mph - N/A   Clear
8:53 PM 57.2 °F - 17.6 °F 21% 30.19 in 10.0 mi East 3.5 mph - N/A   Clear
9:53 PM 51.1 °F - 15.1 °F 24% 30.19 in 10.0 mi WNW 5.8 mph 47.2 mph N/A   Clear
10:53 PM 52.0 °F - 21.0 °F 30% 30.19 in 10.0 mi NW 4.6 mph - N/A   Clear
11:53 PM 46.9 °F - 21.9 °F 37% 30.21 in 10.0 mi Calm Calm - N/A   Clear